,,PA_Meas_PMT16A,,PR_Meas_QMR101_102,,RH_Meas_QMH101,,SR_Meas_QMS101,,TA_Meas_QMH101,,GenWind,,GenWind,
time,status,PA,status,PR,status,RH,status,SR,status,TA,status,DirAvg,status,SpdAvg,
2010-07-24, 00:00:04,VALID,917.798,VALID,0,VALID,96.2456,VALID,0,VALID,19.9353,VALID,347,VALID,0.83125,
2010-07-24, 00:01:04,VALID,917.795,VALID,0,VALID,96.299,VALID,0.107441,VALID,19.9548,VALID,347,VALID,0.762891,
2010-07-24, 00:02:04,VALID,917.744,VALID,0,VALID,96.3066,VALID,0,VALID,19.9548,VALID,347,VALID,0.718359,
2010-07-24, 00:03:04,VALID,917.756,VALID,0,VALID,96.3752,VALID,0,VALID,19.9548,VALID,347,VALID,0.855469,
2010-07-24, 00:04:04,VALID,917.755,VALID,0,VALID,96.3371,VALID,0,VALID,19.9548,VALID,347,VALID,0.934375,
2010-07-24, 00:05:04,VALID,917.752,VALID,0,VALID,96.3676,VALID,0,VALID,19.9353,VALID,347,VALID,0.693359,
2010-07-24, 00:06:04,VALID,917.753,VALID,0,VALID,96.3676,VALID,0,VALID,19.9548,VALID,347,VALID,0.577344,
2010-07-24, 00:07:04,VALID,917.766,VALID,0,VALID,96.3371,VALID,0,VALID,19.9353,VALID,347,VALID,0.421875,
2010-07-24, 00:08:04,VALID,917.745,VALID,0,VALID,96.3066,VALID,0,VALID,19.9158,VALID,347,VALID,0.371875,
2010-07-24, 00:09:04,VALID,917.775,VALID,0,VALID,96.3219,VALID,0,VALID,19.9158,VALID,347,VALID,0.315625,
2010-07-24, 00:10:04,VALID,917.759,VALID,0,VALID,96.3676,VALID,0,VALID,19.9548,VALID,347,VALID,0.324219,
2010-07-24, 00:11:04,VALID,917.768,VALID,0,VALID,96.3219,VALID,0,VALID,19.9548,VALID,347,VALID,0.592578,
2010-07-24, 00:12:04,VALID,917.777,VALID,0,VALID,96.1465,VALID,0,VALID,19.8963,VALID,347,VALID,0.690625,
2010-07-24, 00:13:04,VALID,917.73,VALID,0,VALID,96.1618,VALID,0,VALID,19.8768,VALID,347,VALID,0.807422,
2010-07-24, 00:14:04,VALID,917.773,VALID,0,VALID,96.1389,VALID,0.107441,VALID,19.8168,VALID,347,VALID,0.577734,
2010-07-24, 00:15:04,VALID,917.749,VALID,0,VALID,96.1618,VALID,0,VALID,19.8378,VALID,347,VALID,0.764453,
2010-07-24, 00:16:04,VALID,917.719,VALID,0,VALID,96.2304,VALID,0,VALID,19.8363,VALID,347,VALID,0.794531,
2010-07-24, 00:17:04,VALID,917.746,VALID,0,VALID,96.1923,VALID,0,VALID,19.8573,VALID,347,VALID,0.885547,
2010-07-24, 00:18:04,VALID,917.736,VALID,0,VALID,96.1923,VALID,0,VALID,19.8573,VALID,347,VALID,0.792969,
2010-07-24, 00:19:04,VALID,917.767,VALID,0,VALID,96.2151,VALID,0,VALID,19.8363,VALID,347,VALID,0.536719,
2010-07-24, 00:20:04,VALID,917.754,VALID,0,VALID,96.1618,VALID,0,VALID,19.8573,VALID,347,VALID,0.74375,
2010-07-24, 00:21:04,VALID,917.747,VALID,0,VALID,96.0703,VALID,0,VALID,19.8378,VALID,347,VALID,0.305078,
2010-07-24, 00:22:04,VALID,917.763,VALID,0,VALID,96.0245,VALID,0,VALID,19.8573,VALID,347,VALID,0.271484,
2010-07-24, 00:23:04,VALID,917.766,VALID,0,VALID,96.0093,VALID,0,VALID,19.8573,VALID,347,VALID,0.307422,
2010-07-24, 00:24:04,VALID,917.754,VALID,0,VALID,95.9712,VALID,0,VALID,19.8768,VALID,347,VALID,0.190625,
2010-07-24, 00:25:04,VALID,917.743,VALID,0,VALID,95.8568,VALID,0,VALID,19.8573,VALID,347,VALID,0.187109,
2010-07-24, 00:26:04,VALID,917.717,VALID,0,VALID,95.7654,VALID,0,VALID,19.8573,VALID,347,VALID,0.216406,
2010-07-24, 00:27:04,VALID,917.671,VALID,0,VALID,95.7958,VALID,0,VALID,19.8573,VALID,347,VALID,0.373828,
2010-07-24, 00:28:04,VALID,917.678,VALID,0,VALID,95.6967,VALID,0,VALID,19.8183,VALID,347,VALID,0.323438,
2010-07-24, 00:29:04,VALID,917.686,VALID,0,VALID,95.5824,VALID,0,VALID,19.7793,VALID,347,VALID,0.636719,
2010-07-24, 00:30:04,VALID,917.646,VALID,0,VALID,95.6662,VALID,0,VALID,19.7598,VALID,347,VALID,0.494141,
2010-07-24, 00:31:04,VALID,917.631,VALID,0,VALID,95.7577,VALID,0,VALID,19.7793,VALID,347,VALID,0.760547,
2010-07-24, 00:32:04,VALID,917.648,VALID,0,VALID,95.8263,VALID,0,VALID,19.7793,VALID,347,VALID,0.862109,
2010-07-24, 00:33:04,VALID,917.609,VALID,0,VALID,95.8492,VALID,0,VALID,19.7598,VALID,347,VALID,1.02344,
2010-07-24, 00:34:04,VALID,917.628,VALID,0,VALID,95.9864,VALID,0.107441,VALID,19.8183,VALID,347,VALID,0.861328,
2010-07-24, 00:35:04,VALID,917.622,VALID,0,VALID,95.9636,VALID,0,VALID,19.8183,VALID,347,VALID,0.752344,
2010-07-24, 00:36:04,VALID,917.585,VALID,0,VALID,95.895,VALID,0.107441,VALID,19.7988,VALID,347,VALID,0.899609,
2010-07-24, 00:37:04,VALID,917.598,VALID,0,VALID,95.9026,VALID,0,VALID,19.8183,VALID,347,VALID,0.55,
2010-07-24, 00:38:04,VALID,917.561,VALID,0,VALID,95.834,VALID,0,VALID,19.7793,VALID,347,VALID,0.762891,
2010-07-24, 00:39:04,VALID,917.573,VALID,0,VALID,95.895,VALID,0,VALID,19.8003,VALID,347,VALID,0.655859,
2010-07-24, 00:40:04,VALID,917.546,VALID,0,VALID,95.9178,VALID,0,VALID,19.7793,VALID,347,VALID,0.427734,
2010-07-24, 00:41:04,VALID,917.547,VALID,0,VALID,95.9941,VALID,0,VALID,19.7988,VALID,347,VALID,0.107422,
2010-07-24, 00:42:04,VALID,917.568,VALID,0,VALID,96.0703,VALID,0,VALID,19.7988,VALID,347,VALID,0,
2010-07-24, 00:43:04,VALID,917.604,VALID,0,VALID,96.0703,VALID,0,VALID,19.8183,VALID,347,VALID,0,
2010-07-24, 00:44:04,VALID,917.6,VALID,0,VALID,96.0398,VALID,0,VALID,19.8378,VALID,347,VALID,0,
2010-07-24, 00:45:04,VALID,917.663,VALID,0,VALID,95.9636,VALID,0,VALID,19.8378,VALID,347,VALID,0.583203,
2010-07-24, 00:46:04,VALID,917.659,VALID,0,VALID,95.7272,VALID,0,VALID,19.8183,VALID,347,VALID,0.701563,
2010-07-24, 00:47:04,VALID,917.685,VALID,0,VALID,95.6967,VALID,0,VALID,19.8183,VALID,347,VALID,0.732813,
2010-07-24, 00:48:04,VALID,917.67,VALID,0,VALID,95.6053,VALID,0.107441,VALID,19.7793,VALID,347,VALID,0.675,
2010-07-24, 00:49:04,VALID,917.638,VALID,0,VALID,95.6053,VALID,0,VALID,19.7793,VALID,347,VALID,1.06641,
2010-07-24, 00:50:04,VALID,917.577,VALID,0,VALID,95.773,VALID,0,VALID,19.7988,VALID,347,VALID,0.729688,
2010-07-24, 00:51:04,VALID,917.546,VALID,0,VALID,95.834,VALID,0,VALID,19.7793,VALID,347,VALID,0.554297,
2010-07-24, 00:52:04,VALID,917.488,VALID,0,VALID,95.9102,VALID,0,VALID,19.7793,VALID,347,VALID,0.653516,
2010-07-24, 00:53:04,VALID,917.472,VALID,0,VALID,95.9864,VALID,0,VALID,19.7988,VALID,347,VALID,0.689844,
2010-07-24, 00:54:04,VALID,917.451,VALID,0,VALID,95.9864,VALID,0,VALID,19.7988,VALID,347,VALID,1.00664,
2010-07-24, 00:55:04,VALID,917.456,VALID,0,VALID,95.9864,VALID,0.107441,VALID,19.8183,VALID,347,VALID,0.833594,
2010-07-24, 00:56:04,VALID,917.443,VALID,0,VALID,95.9559,VALID,0,VALID,19.8378,VALID,347,VALID,0.484375,
2010-07-24, 00:57:04,VALID,917.462,VALID,0,VALID,95.895,VALID,0,VALID,19.8573,VALID,347,VALID,0.2625,
2010-07-24, 00:58:04,VALID,917.459,VALID,0,VALID,95.6967,VALID,0,VALID,19.8183,VALID,347,VALID,0.469141,
2010-07-24, 00:59:04,VALID,917.476,VALID,0,VALID,95.6205,VALID,0,VALID,19.8183,VALID,347,VALID,0.473828,
2010-07-24, 01:00:04,VALID,917.46,VALID,0,VALID,95.6281,VALID,0,VALID,19.7988,VALID,347,VALID,0.336719,
2010-07-24, 01:01:04,VALID,917.461,VALID,0,VALID,95.6434,VALID,0,VALID,19.7988,VALID,347,VALID,0.979297,
2010-07-24, 01:02:04,VALID,917.48,VALID,0,VALID,95.8492,VALID,0,VALID,19.8183,VALID,348,VALID,0.650781,
2010-07-24, 01:03:04,VALID,917.483,VALID,0,VALID,95.9331,VALID,0.107441,VALID,19.8378,VALID,348,VALID,1.07266,
2010-07-24, 01:04:04,VALID,917.496,VALID,0,VALID,95.9864,VALID,0,VALID,19.8573,VALID,348,VALID,0.577344,
2010-07-24, 01:05:04,VALID,917.49,VALID,0,VALID,96.0093,VALID,0,VALID,19.8768,VALID,348,VALID,0.589453,
2010-07-24, 01:06:05,VALID,917.457,VALID,0,VALID,95.8797,VALID,0,VALID,19.8768,VALID,348,VALID,0.894922,
2010-07-24, 01:07:05,VALID,917.41,VALID,0,VALID,95.9331,VALID,0.107441,VALID,19.8963,VALID,348,VALID,1.06406,
2010-07-24, 01:08:05,VALID,917.407,VALID,0,VALID,95.834,VALID,0.107441,VALID,19.8963,VALID,348,VALID,1.03008,
2010-07-24, 01:09:05,VALID,917.381,VALID,0,VALID,95.8416,VALID,0,VALID,19.9353,VALID,348,VALID,0.78125,
2010-07-24, 01:10:05,VALID,917.385,VALID,0,VALID,95.8035,VALID,0,VALID,19.9158,VALID,348,VALID,0.803125,
2010-07-24, 01:11:05,VALID,917.374,VALID,0,VALID,95.7958,VALID,0,VALID,19.9353,VALID,348,VALID,0.322266,
2010-07-24, 01:12:05,VALID,917.364,VALID,0,VALID,95.7958,VALID,0.107441,VALID,19.9743,VALID,348,VALID,0.00273437,
2010-07-24, 01:13:05,VALID,917.338,VALID,0,VALID,95.7349,VALID,0.107441,VALID,19.9938,VALID,348,VALID,0.126172,
2010-07-24, 01:14:05,VALID,917.316,VALID,0,VALID,95.6815,VALID,0,VALID,20.0133,VALID,348,VALID,0.647656,
2010-07-24, 01:15:05,VALID,917.346,VALID,0,VALID,95.5748,VALID,0,VALID,19.9938,VALID,348,VALID,0.730469,
2010-07-24, 01:16:05,VALID,917.316,VALID,0,VALID,95.5595,VALID,0,VALID,20.0133,VALID,348,VALID,0.178125,
2010-07-24, 01:17:05,VALID,917.326,VALID,0,VALID,95.5443,VALID,0.107441,VALID,20.0118,VALID,348,VALID,0.867969,
2010-07-24, 01:18:05,VALID,917.297,VALID,0,VALID,95.4299,VALID,0,VALID,20.0133,VALID,348,VALID,0.594922,
2010-07-24, 01:19:05,VALID,917.286,VALID,0,VALID,95.3689,VALID,0.107441,VALID,20.0133,VALID,348,VALID,0.447656,
2010-07-24, 01:20:05,VALID,917.268,VALID,0,VALID,95.3308,VALID,0,VALID,20.0343,VALID,31,VALID,1.28672,
2010-07-24, 01:21:05,VALID,917.294,VALID,0,VALID,95.3842,VALID,0.107441,VALID,20.0328,VALID,28,VALID,0.682031,
2010-07-24, 01:22:05,VALID,917.288,VALID,0,VALID,95.2851,VALID,0,VALID,20.0328,VALID,28,VALID,0.790234,
2010-07-24, 01:23:05,VALID,917.285,VALID,0,VALID,95.2165,VALID,0,VALID,20.0523,VALID,28,VALID,0.995703,
2010-07-24, 01:24:05,VALID,917.26,VALID,0,VALID,95.2088,VALID,0.107441,VALID,20.0523,VALID,28,VALID,0.887109,
2010-07-24, 01:25:05,VALID,917.232,VALID,0,VALID,95.2088,VALID,0.107441,VALID,20.0523,VALID,28,VALID,0.775,
2010-07-24, 01:26:05,VALID,917.21,VALID,0,VALID,95.2546,VALID,0.107441,VALID,20.0523,VALID,28,VALID,1.05508,
2010-07-24, 01:27:05,VALID,917.204,VALID,0,VALID,95.2165,VALID,0.107441,VALID,20.0718,VALID,28,VALID,0.908984,
2010-07-24, 01:28:05,VALID,917.22,VALID,0,VALID,95.2165,VALID,0,VALID,20.0313,VALID,28,VALID,0.81875,
2010-07-24, 01:29:05,VALID,917.222,VALID,0,VALID,95.2012,VALID,0.107441,VALID,20.0718,VALID,28,VALID,0.582031,
2010-07-24, 01:30:05,VALID,917.2,VALID,0,VALID,95.3003,VALID,0.107441,VALID,20.0718,VALID,28,VALID,0.597266,
2010-07-24, 01:31:05,VALID,917.196,VALID,0,VALID,95.1707,VALID,0,VALID,20.0523,VALID,28,VALID,0.641016,
2010-07-24, 01:32:05,VALID,917.212,VALID,0,VALID,95.125,VALID,0.107441,VALID,20.0523,VALID,28,VALID,0.729688,
2010-07-24, 01:33:05,VALID,917.229,VALID,0,VALID,95.1021,VALID,0,VALID,20.0328,VALID,25,VALID,0.617188,
2010-07-24, 01:34:05,VALID,917.236,VALID,0,VALID,95.064,VALID,0,VALID,20.0118,VALID,308,VALID,0.792969,
2010-07-24, 01:35:05,VALID,917.232,VALID,0,VALID,94.9801,VALID,0.107441,VALID,20.0313,VALID,309,VALID,0.851172,
2010-07-24, 01:36:05,VALID,917.217,VALID,0,VALID,94.9192,VALID,0.107441,VALID,20.0313,VALID,309,VALID,0.416797,
2010-07-24, 01:37:05,VALID,917.23,VALID,0,VALID,94.8963,VALID,0.107441,VALID,20.0313,VALID,309,VALID,0.655859,
2010-07-24, 01:38:05,VALID,917.217,VALID,0,VALID,94.881,VALID,0,VALID,20.0523,VALID,309,VALID,0.562891,
2010-07-24, 01:39:05,VALID,917.201,VALID,0,VALID,94.8429,VALID,0.107441,VALID,20.0523,VALID,309,VALID,0.425391,
2010-07-24, 01:40:05,VALID,917.143,VALID,0,VALID,94.8658,VALID,0,VALID,20.0508,VALID,309,VALID,0.0152344,
2010-07-24, 01:41:05,VALID,917.139,VALID,0,VALID,94.7209,VALID,0.107441,VALID,20.0718,VALID,309,VALID,0.0167969,
2010-07-24, 01:42:05,VALID,917.108,VALID,0,VALID,94.538,VALID,0.107441,VALID,20.0703,VALID,309,VALID,1.03867,
2010-07-24, 01:43:05,VALID,917.078,VALID,0,VALID,94.4922,VALID,0.107441,VALID,20.0913,VALID,309,VALID,0.838672,
2010-07-24, 01:44:05,VALID,917.076,VALID,0,VALID,94.6447,VALID,0,VALID,20.0913,VALID,336,VALID,0.751172,
2010-07-24, 01:45:05,VALID,917.053,VALID,0,VALID,94.599,VALID,0,VALID,20.0913,VALID,349,VALID,0.65,
2010-07-24, 01:46:05,VALID,917.03,VALID,0,VALID,94.6447,VALID,0.107441,VALID,20.0718,VALID,349,VALID,0.909766,
2010-07-24, 01:47:05,VALID,917.019,VALID,0,VALID,94.7133,VALID,0,VALID,20.0508,VALID,349,VALID,1.0418,
2010-07-24, 01:48:05,VALID,917.003,VALID,0,VALID,94.8048,VALID,0.107441,VALID,20.0718,VALID,349,VALID,0.503125,
2010-07-24, 01:49:05,VALID,916.982,VALID,0,VALID,94.9268,VALID,0.107441,VALID,20.0718,VALID,349,VALID,0.28125,
2010-07-24, 01:50:05,VALID,916.973,VALID,0,VALID,94.9725,VALID,0,VALID,20.0718,VALID,349,VALID,0.647656,
2010-07-24, 01:51:05,VALID,916.975,VALID,0,VALID,95.003,VALID,0.107441,VALID,20.0718,VALID,24,VALID,0.882422,
2010-07-24, 01:52:05,VALID,916.938,VALID,0,VALID,94.9039,VALID,0.107441,VALID,20.0508,VALID,26,VALID,0.866797,
2010-07-24, 01:53:05,VALID,916.944,VALID,0,VALID,94.8734,VALID,0.107441,VALID,20.0508,VALID,26,VALID,0.933203,
2010-07-24, 01:54:05,VALID,916.949,VALID,0,VALID,94.82,VALID,0.107441,VALID,20.0508,VALID,26,VALID,0.6375,
2010-07-24, 01:55:05,VALID,916.96,VALID,0,VALID,94.8734,VALID,0,VALID,20.0523,VALID,26,VALID,0.677734,
2010-07-24, 01:56:05,VALID,916.981,VALID,0,VALID,94.8734,VALID,0,VALID,20.0328,VALID,26,VALID,0.722266,
2010-07-24, 01:57:05,VALID,916.998,VALID,0,VALID,94.9268,VALID,0,VALID,20.0133,VALID,26,VALID,0.213281,
2010-07-24, 01:58:05,VALID,917.01,VALID,0,VALID,94.942,VALID,0,VALID,20.0328,VALID,26,VALID,0.380469,
2010-07-24, 01:59:05,VALID,917.012,VALID,0,VALID,94.9496,VALID,0.107441,VALID,19.9923,VALID,26,VALID,0.957422,
2010-07-24, 02:00:05,VALID,917.027,VALID,0,VALID,94.8124,VALID,0.107441,VALID,19.9938,VALID,26,VALID,1.17031,
2010-07-24, 02:01:05,VALID,917.041,VALID,0,VALID,94.6676,VALID,0,VALID,20.0148,VALID,26,VALID,1.09219,
2010-07-24, 02:02:05,VALID,917.066,VALID,0,VALID,94.6142,VALID,0,VALID,19.9953,VALID,26,VALID,0.387109,
2010-07-24, 02:03:05,VALID,917.052,VALID,0,VALID,94.5304,VALID,0,VALID,19.9548,VALID,26,VALID,0.226172,
2010-07-24, 02:04:05,VALID,917.022,VALID,0,VALID,94.477,VALID,0,VALID,19.9563,VALID,26,VALID,0.798047,
2010-07-24, 02:05:05,VALID,917.007,VALID,0,VALID,94.5837,VALID,0,VALID,19.9563,VALID,26,VALID,0.716406,
2010-07-24, 02:06:05,VALID,916.971,VALID,0,VALID,94.7209,VALID,0,VALID,19.9368,VALID,26,VALID,0.551953,
2010-07-24, 02:07:05,VALID,916.978,VALID,0,VALID,94.7591,VALID,0,VALID,19.9158,VALID,26,VALID,1.08789,
2010-07-24, 02:08:05,VALID,916.957,VALID,0,VALID,94.7667,VALID,0,VALID,19.9158,VALID,26,VALID,0.676953,
2010-07-24, 02:09:05,VALID,916.979,VALID,0,VALID,94.7743,VALID,0,VALID,19.9173,VALID,25,VALID,0.869141,
2010-07-24, 02:10:05,VALID,916.936,VALID,0,VALID,94.8048,VALID,0,VALID,19.8573,VALID,25,VALID,0.890234,
2010-07-24, 02:11:05,VALID,916.966,VALID,0,VALID,95.0106,VALID,0,VALID,19.8783,VALID,25,VALID,0.353906,
2010-07-24, 02:12:05,VALID,916.94,VALID,0,VALID,95.0869,VALID,0,VALID,19.8573,VALID,25,VALID,0.315625,
2010-07-24, 02:13:05,VALID,916.934,VALID,0,VALID,95.1555,VALID,0,VALID,19.8783,VALID,25,VALID,0.400781,
2010-07-24, 02:14:05,VALID,916.918,VALID,0,VALID,95.1631,VALID,0,VALID,19.8783,VALID,25,VALID,0.541797,
2010-07-24, 02:15:05,VALID,916.907,VALID,0,VALID,95.1174,VALID,0,VALID,19.8588,VALID,25,VALID,0.818359,
2010-07-24, 02:16:05,VALID,916.897,VALID,0,VALID,95.2317,VALID,0.107441,VALID,19.8558,VALID,25,VALID,0.298438,
2010-07-24, 02:17:05,VALID,916.907,VALID,0,VALID,95.2546,VALID,0.107441,VALID,19.8768,VALID,25,VALID,0.478125,
2010-07-24, 02:18:05,VALID,916.897,VALID,0,VALID,95.2775,VALID,0,VALID,19.8768,VALID,25,VALID,0.425781,
2010-07-24, 02:19:05,VALID,916.879,VALID,0,VALID,95.2546,VALID,0,VALID,19.8573,VALID,25,VALID,0.26875,
2010-07-24, 02:20:05,VALID,916.864,VALID,0,VALID,95.3613,VALID,0,VALID,19.8573,VALID,25,VALID,0.160938,
2010-07-24, 02:21:05,VALID,916.889,VALID,0,VALID,95.4071,VALID,0,VALID,19.8768,VALID,25,VALID,0,
2010-07-24, 02:22:05,VALID,916.896,VALID,0,VALID,95.4071,VALID,0,VALID,19.8963,VALID,25,VALID,0,
2010-07-24, 02:23:05,VALID,916.905,VALID,0,VALID,95.4071,VALID,0.107441,VALID,19.9158,VALID,25,VALID,0,
2010-07-24, 02:24:05,VALID,916.882,VALID,0,VALID,95.3537,VALID,0.107441,VALID,19.8948,VALID,25,VALID,0,
2010-07-24, 02:25:05,VALID,916.914,VALID,0,VALID,95.2622,VALID,0,VALID,19.8753,VALID,25,VALID,0,
2010-07-24, 02:26:05,VALID,916.873,VALID,0,VALID,95.3003,VALID,0,VALID,19.8768,VALID,25,VALID,0,
2010-07-24, 02:27:05,VALID,916.849,VALID,0,VALID,95.3994,VALID,0,VALID,19.8963,VALID,25,VALID,0,
2010-07-24, 02:28:05,VALID,916.872,VALID,0,VALID,95.5214,VALID,0,VALID,19.8753,VALID,25,VALID,0,
2010-07-24, 02:29:05,VALID,916.846,VALID,0,VALID,95.5519,VALID,0,VALID,19.8963,VALID,25,VALID,0.0425781,
2010-07-24, 02:30:05,VALID,916.838,VALID,0,VALID,95.5367,VALID,0.107441,VALID,19.8753,VALID,25,VALID,0.35625,
2010-07-24, 02:31:05,VALID,916.826,VALID,0,VALID,95.5748,VALID,0,VALID,19.9158,VALID,25,VALID,0.280469,
2010-07-24, 02:32:05,VALID,916.837,VALID,0,VALID,95.5976,VALID,0,VALID,19.9158,VALID,25,VALID,0.298438,
2010-07-24, 02:33:05,VALID,916.842,VALID,0,VALID,95.651,VALID,0,VALID,19.9353,VALID,25,VALID,0.198437,
2010-07-24, 02:34:05,VALID,916.786,VALID,0,VALID,95.6815,VALID,0,VALID,19.9353,VALID,25,VALID,0,
2010-07-24, 02:35:05,VALID,916.817,VALID,0,VALID,95.7425,VALID,0.107441,VALID,19.9338,VALID,25,VALID,0,
2010-07-24, 02:36:05,VALID,916.787,VALID,0,VALID,95.7349,VALID,0,VALID,19.9548,VALID,25,VALID,0,
2010-07-24, 02:37:05,VALID,916.762,VALID,0,VALID,95.59,VALID,0.107441,VALID,19.8948,VALID,25,VALID,0,
2010-07-24, 02:38:05,VALID,916.747,VALID,0,VALID,95.5595,VALID,0.107441,VALID,19.8963,VALID,25,VALID,0,
2010-07-24, 02:39:05,VALID,916.721,VALID,0,VALID,95.5138,VALID,0.107441,VALID,19.8963,VALID,25,VALID,0.0652344,
2010-07-24, 02:40:05,VALID,916.719,VALID,0,VALID,95.4528,VALID,0,VALID,19.8768,VALID,25,VALID,0,
2010-07-24, 02:41:05,VALID,916.702,VALID,0,VALID,95.3918,VALID,0,VALID,19.8378,VALID,25,VALID,0,
2010-07-24, 02:42:05,VALID,916.691,VALID,0,VALID,95.3156,VALID,0,VALID,19.8378,VALID,25,VALID,0,
2010-07-24, 02:43:05,VALID,916.677,VALID,0,VALID,95.125,VALID,0,VALID,19.7988,VALID,25,VALID,0.210156,
2010-07-24, 02:44:05,VALID,916.666,VALID,0,VALID,95.0106,VALID,0,VALID,19.7598,VALID,25,VALID,0.672266,
2010-07-24, 02:45:05,VALID,916.658,VALID,0,VALID,94.9954,VALID,0,VALID,19.7208,VALID,25,VALID,0.844141,
2010-07-24, 02:46:05,VALID,916.633,VALID,0,VALID,94.8887,VALID,0.107441,VALID,19.6623,VALID,25,VALID,0.719922,
2010-07-24, 02:47:05,VALID,916.662,VALID,0,VALID,95.125,VALID,0.107441,VALID,19.6218,VALID,25,VALID,0.407813,
2010-07-24, 02:48:05,VALID,916.629,VALID,0,VALID,95.0259,VALID,0,VALID,19.5453,VALID,25,VALID,0.460156,
2010-07-24, 02:49:05,VALID,916.602,VALID,0,VALID,95.1631,VALID,0,VALID,19.4868,VALID,25,VALID,0.723828,
2010-07-24, 02:50:05,VALID,916.62,VALID,0,VALID,95.3613,VALID,0.107441,VALID,19.4463,VALID,25,VALID,0.548828,
2010-07-24, 02:51:05,VALID,916.615,VALID,0,VALID,95.3384,VALID,0,VALID,19.3893,VALID,25,VALID,0.699609,
2010-07-24, 02:52:05,VALID,916.602,VALID,0,VALID,95.4757,VALID,0,VALID,19.3698,VALID,25,VALID,0.757813,
2010-07-24, 02:53:05,VALID,916.582,VALID,0,VALID,95.59,VALID,0,VALID,19.3099,VALID,25,VALID,0.607422,
2010-07-24, 02:54:05,VALID,916.562,VALID,0,VALID,95.6967,VALID,0,VALID,19.2918,VALID,25,VALID,0.661328,
2010-07-24, 02:55:05,VALID,916.56,VALID,0,VALID,95.7958,VALID,0.107441,VALID,19.2723,VALID,25,VALID,0.719141,
2010-07-24, 02:56:05,VALID,916.515,VALID,0,VALID,96.0169,VALID,0,VALID,19.2918,VALID,25,VALID,1.07969,
2010-07-24, 02:57:05,VALID,916.536,VALID,0,VALID,96.1465,VALID,0,VALID,19.2918,VALID,359,VALID,1.06562,
2010-07-24, 02:58:05,VALID,916.502,VALID,0,VALID,96.2609,VALID,0,VALID,19.2918,VALID,359,VALID,1.1332,
2010-07-24, 02:59:05,VALID,916.484,VALID,0,VALID,96.177,VALID,0,VALID,19.2528,VALID,359,VALID,0.823828,
2010-07-24, 03:00:05,VALID,916.494,VALID,0,VALID,96.299,VALID,0,VALID,19.2334,VALID,359,VALID,0.797266,
2010-07-24, 03:01:05,VALID,916.496,VALID,0,VALID,96.3219,VALID,0,VALID,19.2334,VALID,359,VALID,0.419531,
2010-07-24, 03:02:05,VALID,916.48,VALID,0,VALID,96.3295,VALID,0,VALID,19.2153,VALID,359,VALID,0.438672,
2010-07-24, 03:03:05,VALID,916.491,VALID,0,VALID,96.4286,VALID,0.107441,VALID,19.2334,VALID,359,VALID,0.257422,
2010-07-24, 03:04:05,VALID,916.458,VALID,0,VALID,96.5201,VALID,0,VALID,19.2528,VALID,359,VALID,0.192969,
2010-07-24, 03:05:05,VALID,916.428,VALID,0,VALID,96.5201,VALID,0,VALID,19.2528,VALID,359,VALID,0.345703,
2010-07-24, 03:06:05,VALID,916.429,VALID,0,VALID,96.5582,VALID,0,VALID,19.2528,VALID,359,VALID,0.457422,
2010-07-24, 03:07:05,VALID,916.438,VALID,0,VALID,96.4667,VALID,0,VALID,19.2334,VALID,359,VALID,0.471094,
2010-07-24, 03:08:05,VALID,916.419,VALID,0,VALID,96.421,VALID,0,VALID,19.1944,VALID,359,VALID,0.424219,
2010-07-24, 03:09:05,VALID,916.427,VALID,0,VALID,96.4057,VALID,0,VALID,19.2153,VALID,359,VALID,0.568359,
2010-07-24, 03:10:05,VALID,916.476,VALID,0,VALID,96.4743,VALID,0,VALID,19.1749,VALID,359,VALID,0.578906,
2010-07-24, 03:11:05,VALID,916.482,VALID,0,VALID,96.4972,VALID,0,VALID,19.1749,VALID,359,VALID,0.411328,
2010-07-24, 03:12:05,VALID,916.483,VALID,0,VALID,96.6115,VALID,0,VALID,19.1944,VALID,359,VALID,0.485156,
2010-07-24, 03:13:05,VALID,916.476,VALID,0,VALID,96.6115,VALID,0,VALID,19.1944,VALID,359,VALID,0.498828,
2010-07-24, 03:14:05,VALID,916.496,VALID,0,VALID,96.6344,VALID,0,VALID,19.1944,VALID,359,VALID,0.444141,
2010-07-24, 03:15:05,VALID,916.52,VALID,0,VALID,96.6802,VALID,0,VALID,19.2139,VALID,359,VALID,0.246484,
2010-07-24, 03:16:05,VALID,916.504,VALID,0,VALID,96.6878,VALID,0,VALID,19.2139,VALID,359,VALID,0.0363281,
2010-07-24, 03:17:05,VALID,916.496,VALID,0,VALID,96.5582,VALID,0,VALID,19.1749,VALID,359,VALID,0,
2010-07-24, 03:18:05,VALID,916.473,VALID,0,VALID,96.5124,VALID,0,VALID,19.1554,VALID,359,VALID,0,
2010-07-24, 03:19:05,VALID,916.434,VALID,0,VALID,96.4972,VALID,0,VALID,19.1164,VALID,359,VALID,0,
2010-07-24, 03:20:05,VALID,916.428,VALID,0,VALID,96.5887,VALID,0,VALID,19.1359,VALID,359,VALID,0,
2010-07-24, 03:21:05,VALID,916.423,VALID,0,VALID,96.6649,VALID,0,VALID,19.1749,VALID,359,VALID,0.267578,
2010-07-24, 03:22:05,VALID,916.383,VALID,0,VALID,96.6878,VALID,0,VALID,19.1944,VALID,359,VALID,0.161719,
2010-07-24, 03:23:05,VALID,916.34,VALID,0,VALID,96.6497,VALID,0,VALID,19.1944,VALID,359,VALID,0.391797,
2010-07-24, 03:24:05,VALID,916.341,VALID,0,VALID,96.6725,VALID,0,VALID,19.1944,VALID,359,VALID,0.469141,
2010-07-24, 03:25:05,VALID,916.321,VALID,0,VALID,96.6649,VALID,0,VALID,19.2139,VALID,359,VALID,0.221094,
2010-07-24, 03:26:05,VALID,916.3,VALID,0,VALID,96.6497,VALID,0,VALID,19.2139,VALID,359,VALID,0.152734,
2010-07-24, 03:27:05,VALID,916.311,VALID,0,VALID,96.6192,VALID,0,VALID,19.2139,VALID,359,VALID,0.0621094,
2010-07-24, 03:28:05,VALID,916.269,VALID,0,VALID,96.3676,VALID,0,VALID,19.1373,VALID,359,VALID,0.527734,
2010-07-24, 03:29:05,VALID,916.222,VALID,0,VALID,96.3219,VALID,0,VALID,19.0579,VALID,359,VALID,0.84375,
2010-07-24, 03:30:05,VALID,916.22,VALID,0,VALID,96.421,VALID,0,VALID,19.0788,VALID,359,VALID,0.797266,
2010-07-24, 03:31:05,VALID,916.195,VALID,0,VALID,96.5506,VALID,0,VALID,19.0983,VALID,359,VALID,0.665625,
2010-07-24, 03:32:05,VALID,916.183,VALID,0,VALID,96.5811,VALID,0,VALID,19.0774,VALID,359,VALID,0.5,
2010-07-24, 03:33:05,VALID,916.183,VALID,0,VALID,96.5658,VALID,0,VALID,19.0384,VALID,359,VALID,0.312891,
2010-07-24, 03:34:05,VALID,916.184,VALID,0,VALID,96.6039,VALID,0.107441,VALID,19.0398,VALID,359,VALID,0.208594,
2010-07-24, 03:35:05,VALID,916.18,VALID,0,VALID,96.5506,VALID,0,VALID,18.9814,VALID,359,VALID,0.432813,
2010-07-24, 03:36:05,VALID,916.204,VALID,0,VALID,96.5277,VALID,0,VALID,18.9424,VALID,359,VALID,0.533594,
2010-07-24, 03:37:05,VALID,916.223,VALID,0,VALID,96.6344,VALID,0,VALID,18.8824,VALID,359,VALID,0.498047,
2010-07-24, 03:38:05,VALID,916.226,VALID,0,VALID,96.6649,VALID,0,VALID,18.8824,VALID,359,VALID,0.560938,
2010-07-24, 03:39:05,VALID,916.229,VALID,0,VALID,96.7183,VALID,0,VALID,18.8824,VALID,359,VALID,0.414063,
2010-07-24, 03:40:05,VALID,916.233,VALID,0,VALID,96.7183,VALID,0,VALID,18.8629,VALID,359,VALID,0.387891,
2010-07-24, 03:41:05,VALID,916.21,VALID,0,VALID,96.7259,VALID,0,VALID,18.8449,VALID,359,VALID,0.432813,
2010-07-24, 03:42:05,VALID,916.224,VALID,0,VALID,96.7411,VALID,0,VALID,18.824,VALID,359,VALID,0.425,
2010-07-24, 03:43:05,VALID,916.21,VALID,0,VALID,96.764,VALID,0,VALID,18.8045,VALID,359,VALID,0.15,